Weather History for Moncks Corner, SC

Change the Weather History Date:

Monday, February 6, 2012

  Actual Average (KCHS) Record (KCHS)
Temperature  
Mean Temperature 50 °F 50 °F  
Max Temperature 55 °F 61 °F 77 °F (2008)
Min Temperature 46 °F 39 °F 19 °F (1966)
Degree Days  
Heating Degree Days 14 15  
Month to date heating degree days 92  
Since 1 July heating degree days 1351  
Cooling Degree Days 0 0  
Month to date cooling degree days 0  
Year to date cooling degree days 2  
Moisture  
Dew Point 42 °F    
Average Humidity 71    
Maximum Humidity 82    
Minimum Humidity 63    
Precipitation  
Precipitation 0.00 in 0.11 in 1.51 in (1986)
Month to date precipitation 0.67  
Year to date precipitation 4.38  
Sea Level Pressure  
Sea Level Pressure 30.18 in    
Wind  
Wind Speed 7 mph (NNE)    
Max Wind Speed 10 mph    
Max Gust Speed -    
Visibility 8 miles    
Events      
T = Trace of Precipitation, MM = Missing Value Source: NWS Daily Summary

Daily Weather History Graph

Daily Weather History Graph

Search for Another Location

Airport:

Trip Planner

Search our weather history database for the weather conditions in past years. The results will help you decide how hot, cold, wet, or windy it might be!

Date:

Astronomy

Feb. 06, 2012 Rise Set
Actual Time 7:12 AM EST 5:56 PM EST
Civil Twilight 6:46 AM EST 6:22 PM EST
Nautical Twilight 6:17 AM EST 6:51 PM EST
Astronomical Twilight 5:48 AM EST 7:20 PM EST
Moon 4:58 PM EST (2/6) 6:01 AM EST (2/6)
Length of Visible Light 11h 35m
Length of Day
10h 44m
Waxing Gibbous, 98% of the Moon is Illuminated
Feb 6
Waxing Gibbous
Feb 7
Full
Feb 14
Last Quarter
Feb 21
New
Feb 29
First Quarter

Hourly Weather History & Observations

Time (EST) Temp. Windchill Dew Point Humidity Pressure Visibility Wind Dir Wind Speed Gust Speed Precip Events Conditions
12:15 AM 51.8 °F - 46.4 °F 82% 30.16 in 10.0 mi NE 6.9 mph - N/A   Overcast
12:35 AM 51.8 °F - 44.6 °F 76% 30.17 in 10.0 mi NE 9.2 mph - N/A   Overcast
12:55 AM 51.8 °F - 44.6 °F 76% 30.17 in 10.0 mi NE 8.1 mph - N/A   Overcast
1:15 AM 51.8 °F - 44.6 °F 76% 30.17 in 7.0 mi NE 8.1 mph - N/A   Overcast
1:35 AM 51.8 °F - 44.6 °F 76% 30.18 in 10.0 mi NE 6.9 mph - N/A   Overcast
1:55 AM 51.8 °F - 44.6 °F 76% 30.17 in 10.0 mi NE 9.2 mph - N/A   Overcast
2:15 AM 50.0 °F - 44.6 °F 82% 30.17 in 10.0 mi NE 8.1 mph - N/A   Overcast
2:35 AM 50.0 °F - 42.8 °F 76% 30.17 in 7.0 mi ENE 8.1 mph - N/A   Overcast
2:55 AM 50.0 °F - 42.8 °F 76% 30.18 in 10.0 mi NE 6.9 mph - N/A   Overcast
3:15 AM 50.0 °F - 42.8 °F 76% 30.18 in 10.0 mi ENE 8.1 mph - N/A   Overcast
3:35 AM 50.0 °F - 41.0 °F 71% 30.18 in 7.0 mi NE 8.1 mph - N/A   Overcast
3:55 AM 50.0 °F - 41.0 °F 71% 30.17 in 10.0 mi NE 10.4 mph - N/A   Overcast
4:15 AM 50.0 °F - 41.0 °F 71% 30.18 in 10.0 mi NE 9.2 mph - N/A   Overcast
4:35 AM 50.0 °F - 41.0 °F 71% 30.18 in 10.0 mi NE 6.9 mph - N/A   Overcast
4:55 AM 48.2 °F - 41.0 °F 76% 30.18 in 7.0 mi NE 6.9 mph - N/A   Overcast
5:15 AM 48.2 °F - 41.0 °F 76% 30.19 in 7.0 mi NNE 9.2 mph - N/A   Overcast
5:35 AM 48.2 °F - 41.0 °F 76% 30.20 in 7.0 mi NNE 8.1 mph - N/A   Overcast
5:55 AM 48.2 °F - 41.0 °F 76% 30.20 in 10.0 mi NE 5.8 mph - N/A   Overcast
6:15 AM 48.2 °F - 41.0 °F 76% 30.20 in 10.0 mi NE 8.1 mph - N/A   Overcast
6:35 AM 48.2 °F - 41.0 °F 76% 30.21 in 10.0 mi NE 8.1 mph - N/A   Overcast
6:55 AM 48.2 °F - 41.0 °F 76% 30.21 in 7.0 mi NE 8.1 mph - N/A   Overcast
7:15 AM 48.2 °F - 39.2 °F 71% 30.22 in 7.0 mi NNE 6.9 mph - N/A   Overcast
7:35 AM 46.4 °F 42.4 °F 39.2 °F 76% 30.22 in 7.0 mi ENE 8.1 mph - N/A   Overcast
7:55 AM 46.4 °F 42.9 °F 39.2 °F 76% 30.23 in 7.0 mi NNE 6.9 mph - N/A   Overcast
8:15 AM 46.4 °F 43.5 °F 39.2 °F 76% 30.23 in 7.0 mi NNE 5.8 mph - N/A   Overcast
8:55 AM 48.2 °F - 39.2 °F 71% 30.23 in 7.0 mi NE 6.9 mph - N/A   Overcast
9:15 AM 48.2 °F - 39.2 °F 71% 30.23 in 7.0 mi NE 9.2 mph - N/A   Overcast
9:35 AM 48.2 °F - 39.2 °F 71% 30.24 in 7.0 mi ENE 8.1 mph - N/A   Overcast
9:55 AM 48.2 °F - 39.2 °F 71% 30.24 in 7.0 mi NE 8.1 mph - N/A   Overcast
10:15 AM 50.0 °F - 41.0 °F 71% 30.25 in 7.0 mi NE 5.8 mph - N/A   Overcast
10:35 AM 50.0 °F - 41.0 °F 71% 30.25 in 7.0 mi NNE 4.6 mph - N/A   Overcast
10:55 AM 50.0 °F - 41.0 °F 71% 30.25 in 5.0 mi NNE 4.6 mph - N/A   Haze
11:15 AM 51.8 °F - 41.0 °F 67% 30.24 in 7.0 mi North 5.8 mph - N/A   Overcast
11:35 AM 51.8 °F - 41.0 °F 67% 30.23 in 7.0 mi NE 5.8 mph - N/A   Overcast
11:55 AM 51.8 °F - 41.0 °F 67% 30.22 in 7.0 mi North 6.9 mph - N/A   Overcast
12:15 PM 51.8 °F - 41.0 °F 67% 30.21 in 7.0 mi North 4.6 mph - N/A   Overcast
12:35 PM 51.8 °F - 41.0 °F 67% 30.20 in 7.0 mi North 4.6 mph - N/A   Overcast
12:55 PM 51.8 °F - 41.0 °F 67% 30.19 in 7.0 mi NNW 5.8 mph - N/A   Overcast
1:15 PM 53.6 °F - 42.8 °F 67% 30.18 in 10.0 mi North 4.6 mph - N/A   Overcast
1:35 PM 53.6 °F - 42.8 °F 67% 30.17 in 7.0 mi North 3.5 mph - N/A   Overcast
1:55 PM 53.6 °F - 42.8 °F 67% 30.17 in 7.0 mi North 6.9 mph - N/A   Overcast
2:15 PM 53.6 °F - 42.8 °F 67% 30.16 in 10.0 mi North 6.9 mph - N/A   Overcast
2:35 PM 53.6 °F - 42.8 °F 67% 30.16 in 7.0 mi North 6.9 mph - N/A   Overcast
2:55 PM 53.6 °F - 42.8 °F 67% 30.16 in 10.0 mi North 5.8 mph - N/A   Overcast
3:15 PM 53.6 °F - 42.8 °F 67% 30.15 in 7.0 mi NNE 6.9 mph - N/A   Mostly Cloudy
3:35 PM 55.4 °F - 42.8 °F 63% 30.15 in 7.0 mi North 4.6 mph - N/A   Scattered Clouds
3:55 PM 53.6 °F - 42.8 °F 67% 30.15 in 7.0 mi NNE 5.8 mph - N/A   Scattered Clouds
4:15 PM 53.6 °F - 42.8 °F 67% 30.16 in 7.0 mi NNW 6.9 mph - N/A   Scattered Clouds
4:35 PM 53.6 °F - 42.8 °F 67% 30.16 in 10.0 mi North 4.6 mph - N/A   Scattered Clouds
4:55 PM 53.6 °F - 42.8 °F 67% 30.15 in 10.0 mi North 4.6 mph - N/A   Scattered Clouds
5:15 PM 53.6 °F - 42.8 °F 67% 30.15 in 7.0 mi NNE 5.8 mph - N/A   Scattered Clouds
5:35 PM 51.8 °F - 42.8 °F 71% 30.15 in 10.0 mi North 3.5 mph - N/A   Scattered Clouds
5:55 PM 51.8 °F - 42.8 °F 71% 30.14 in 7.0 mi North 3.5 mph - N/A   Scattered Clouds
6:15 PM 51.8 °F - 42.8 °F 71% 30.14 in 10.0 mi Calm Calm - N/A   Mostly Cloudy
6:35 PM 51.8 °F - 42.8 °F 71% 30.15 in 10.0 mi North 4.6 mph - N/A   Overcast
6:55 PM 51.8 °F - 42.8 °F 71% 30.15 in 7.0 mi North 4.6 mph - N/A   Overcast
7:15 PM 51.8 °F - 42.8 °F 71% 30.15 in 10.0 mi North 5.8 mph - N/A   Overcast
7:35 PM 51.8 °F - 41.0 °F 67% 30.14 in 10.0 mi North 5.8 mph - N/A   Overcast
7:55 PM 51.8 °F - 41.0 °F 67% 30.15 in 10.0 mi North 5.8 mph - N/A   Overcast
8:15 PM 51.8 °F - 41.0 °F 67% 30.15 in 7.0 mi North 5.8 mph - N/A   Overcast
8:35 PM 51.8 °F - 41.0 °F 67% 30.16 in 10.0 mi North 4.6 mph - N/A   Overcast
8:55 PM 51.8 °F - 41.0 °F 67% 30.16 in 10.0 mi North 4.6 mph - N/A   Overcast
9:15 PM 50.0 °F - 41.0 °F 71% 30.16 in 10.0 mi NNW 3.5 mph - N/A   Overcast
9:35 PM 50.0 °F - 39.2 °F 66% 30.16 in 7.0 mi NNW 4.6 mph - N/A   Overcast
9:55 PM 50.0 °F - 39.2 °F 66% 30.16 in 10.0 mi North 5.8 mph - N/A   Overcast
10:15 PM 50.0 °F - 39.2 °F 66% 30.16 in 10.0 mi North 5.8 mph - N/A   Overcast
10:35 PM 50.0 °F - 39.2 °F 66% 30.16 in 10.0 mi NNW 4.6 mph - N/A   Overcast
10:55 PM 50.0 °F - 39.2 °F 66% 30.16 in 10.0 mi NNW 3.5 mph - N/A   Overcast
11:15 PM 50.0 °F - 39.2 °F 66% 30.16 in 10.0 mi Calm Calm - N/A   Overcast
11:35 PM 50.0 °F - 39.2 °F 66% 30.16 in 7.0 mi Calm Calm - N/A   Overcast
11:55 PM 50.0 °F - 41.0 °F 71% 30.15 in 5.0 mi Calm Calm - N/A   Haze